When you browse on this site, cookies collect data to enhance your experience and personalize the content and advertising you see.
Visit our Privacy Policy to learn more. By continuing to use the site, you agree to this use of cookies and data.
  • In Latvia
  • List of Countries
  • For 7 days
  • Water Temperature
  • Satellite Maps
  • Weather Map
  • Weather Widgets
  • user-avatar
    Login

    Hourly Weather Bisagi

    Today, 21 February, Thursday

    Time Temperature Precipitation Wind Pressure Humidity
    00:00 -2°C° 0 mm 2 mps 702 mmHg 89%
    01:00 -3°C° 0 mm 2 mps 702 mmHg 88%
    02:00 -3°C° 0 mm 2 mps 702 mmHg 88%
    03:00 -3°C° 0 mm 2 mps 702 mmHg 87%
    04:00 -3°C° 0 mm 2 mps 702 mmHg 86%
    05:00 -3°C° 0 mm 2 mps 702 mmHg 85%
    06:00 -3°C° 0 mm 2 mps 702 mmHg 85%
    07:00 -2°C° 0 mm 2 mps 702 mmHg 85%
    08:00 -1°C° 0 mm 2 mps 703 mmHg 82%
    09:00 +2°C° 0 mm 2 mps 703 mmHg 78%
    10:00 +2°C° 0 mm 3 mps 703 mmHg 74%
    11:00 +3°C° 0 mm 3 mps 703 mmHg 73%
    12:00 +4°C° 0 mm 3 mps 703 mmHg 71%
    13:00 +4°C° 0 mm 3 mps 703 mmHg 70%
    14:00 +4°C° 0 mm 3 mps 702 mmHg 73%
    15:00 +3°C° 0 mm 3 mps 702 mmHg 77%
    16:00 +3°C° 0 mm 3 mps 702 mmHg 80%
    17:00 +2°C° 0.4 mm 3 mps 702 mmHg 83%
    18:00 +2°C° 0.4 mm 3 mps 701 mmHg 87%
    19:00 +1°C° 0.4 mm 3 mps 701 mmHg 90%
    20:00 +2°C° 0.7 mm 2 mps 701 mmHg 91%
    21:00 +2°C° 0.7 mm 2 mps 701 mmHg 93%
    22:00 +2°C° 0.7 mm 2 mps 700 mmHg 94%
    23:00 +2°C° 0.8 mm 2 mps 700 mmHg 94%

    Tomorrow, 22 February, Friday

    Time Temperature Precipitation Wind Pressure Humidity
    00:00 +2°C° 0.8 mm 2 mps 700 mmHg 94%
    01:00 +2°C° 0.8 mm 2 mps 699 mmHg 95%
    02:00 +2°C° 0.6 mm 2 mps 699 mmHg 95%
    03:00 +2°C° 0.6 mm 2 mps 699 mmHg 96%
    04:00 +2°C° 0.6 mm 2 mps 699 mmHg 96%
    05:00 +2°C° 1 mm 2 mps 699 mmHg 96%
    06:00 +1°C° 1 mm 3 mps 700 mmHg 97%
    07:00 +1°C° 1 mm 3 mps 700 mmHg 97%
    08:00 -2°C° 0.6 mm 4 mps 701 mmHg 95%
    09:00 -4°C° 0.6 mm 4 mps 702 mmHg 93%
    10:00 -7°C° 0.6 mm 5 mps 703 mmHg 90%
    11:00 -7°C° 0.1 mm 5 mps 704 mmHg 85%
    12:00 -7°C° 0.1 mm 5 mps 705 mmHg 79%
    13:00 -8°C° 0.1 mm 6 mps 706 mmHg 73%
    14:00 -7°C° 0 mm 5 mps 706 mmHg 70%
    15:00 -7°C° 0 mm 5 mps 707 mmHg 67%
    16:00 -8°C° 0 mm 5 mps 707 mmHg 64%
    17:00 -10°C° 0 mm 5 mps 708 mmHg 67%
    18:00 -10°C° 0 mm 4 mps 708 mmHg 70%
    19:00 -10°C° 0 mm 4 mps 709 mmHg 72%
    20:00 -11°C° 0 mm 4 mps 709 mmHg 71%
    21:00 -11°C° 0 mm 4 mps 710 mmHg 71%
    22:00 -11°C° 0 mm 4 mps 710 mmHg 70%
    23:00 -11°C° 0 mm 4 mps 711 mmHg 68%

    Day after tomorrow, 23 February, Saturday

    Time Temperature Precipitation Wind Pressure Humidity
    00:00 -12°C° 0 mm 3 mps 711 mmHg 65%
    01:00 -12°C° 0 mm 3 mps 711 mmHg 63%
    02:00 -12°C° 0 mm 3 mps 711 mmHg 63%
    03:00 -12°C° 0 mm 3 mps 711 mmHg 63%
    04:00 -10°C° 0 mm 2 mps 711 mmHg 63%
    05:00 -10°C° 0 mm 2 mps 712 mmHg 64%
    06:00 -10°C° 0 mm 2 mps 712 mmHg 65%
    07:00 -10°C° 0 mm 2 mps 712 mmHg 66%
    08:00 -9°C° 0 mm 2 mps 712 mmHg 62%
    09:00 -10°C° 0 mm 3 mps 713 mmHg 58%
    10:00 -9°C° 0 mm 3 mps 713 mmHg 54%
    11:00 -8°C° 0 mm 3 mps 713 mmHg 51%
    12:00 -7°C° 0 mm 3 mps 713 mmHg 49%
    13:00 -7°C° 0 mm 3 mps 713 mmHg 46%
    14:00 -7°C° 0 mm 3 mps 713 mmHg 46%
    15:00 -6°C° 0 mm 2 mps 713 mmHg 47%
    16:00 -6°C° 0 mm 2 mps 712 mmHg 47%
    17:00 -7°C° 0 mm 2 mps 712 mmHg 51%
    18:00 -7°C° 0 mm 1 mps 712 mmHg 55%
    19:00 -7°C° 0 mm 1 mps 712 mmHg 58%
    20:00 -7°C° 0 mm 1 mps 712 mmHg 59%
    21:00 -8°C° 0 mm 0 mps 712 mmHg 60%
    22:00 -8°C° 0 mm 0 mps 712 mmHg 60%
    23:00 -8°C° 0 mm 0 mps 712 mmHg 60%

    24 February, Sunday

    Time Temperature Precipitation Wind Pressure Humidity
    00:00 -7°C° 0 mm 0 mps 712 mmHg 60%
    01:00 -7°C° 0 mm 0 mps 712 mmHg 60%
    02:00 -7°C° 0 mm 0 mps 712 mmHg 58%
    03:00 -7°C° 0 mm 0 mps 712 mmHg 56%
    04:00 -6°C° 0 mm 0 mps 711 mmHg 55%
    05:00 -6°C° 0 mm 0 mps 711 mmHg 54%
    06:00 -6°C° 0 mm 0 mps 711 mmHg 52%
    07:00 -6°C° 0 mm 0 mps 711 mmHg 51%
    08:00 -5°C° 0 mm 0 mps 711 mmHg 46%
    09:00 -3°C° 0 mm 0 mps 712 mmHg 40%
    10:00 -2°C° 0 mm 0 mps 712 mmHg 34%
    11:00 -1°C° 0 mm 0 mps 712 mmHg 36%
    12:00 +1°C° 0 mm 1 mps 712 mmHg 38%
    13:00 +2°C° 0 mm 1 mps 712 mmHg 39%
    14:00 +1°C° 0 mm 1 mps 711 mmHg 43%
    15:00 +1°C° 0 mm 1 mps 711 mmHg 47%
    16:00 +1°C° 0 mm 1 mps 711 mmHg 51%
    17:00 0°C° 0 mm 1 mps 711 mmHg 53%
    18:00 -1°C° 0 mm 1 mps 711 mmHg 55%
    19:00 -4°C° 0 mm 0 mps 710 mmHg 57%
    20:00 -4°C° 0 mm 0 mps 711 mmHg 56%
    21:00 -3°C° 0 mm 1 mps 711 mmHg 55%
    22:00 -3°C° 0 mm 1 mps 711 mmHg 55%
    23:00 -3°C° 0 mm 1 mps 711 mmHg 55%

    25 February, Monday

    Time Temperature Precipitation Wind Pressure Humidity
    00:00 -3°C° 0 mm 1 mps 711 mmHg 55%
    01:00 -3°C° 0 mm 1 mps 711 mmHg 56%
    02:00 -3°C° 0 mm 1 mps 711 mmHg 57%
    03:00 -2°C° 0 mm 1 mps 710 mmHg 58%
    04:00 -2°C° 0 mm 1 mps 710 mmHg 59%
    05:00 -2°C° 0 mm 1 mps 710 mmHg 61%
    06:00 -2°C° 0 mm 1 mps 711 mmHg 63%
    07:00 -2°C° 0 mm 1 mps 711 mmHg 65%
    08:00 0°C° 0 mm 1 mps 711 mmHg 64%
    09:00 +1°C° 0 mm 1 mps 711 mmHg 63%
    10:00 +3°C° 0 mm 1 mps 712 mmHg 62%
    11:00 +4°C° 0 mm 1 mps 712 mmHg 62%
    12:00 +4°C° 0 mm 2 mps 711 mmHg 61%
    13:00 +5°C° 0 mm 2 mps 711 mmHg 61%
    14:00 +5°C° 0 mm 1 mps 711 mmHg 66%
    15:00 +4°C° 0 mm 1 mps 710 mmHg 70%
    16:00 +4°C° 0 mm 1 mps 710 mmHg 75%
    17:00 +3°C° 0 mm 1 mps 710 mmHg 78%
    18:00 +1°C° 0 mm 1 mps 710 mmHg 81%
    19:00 0°C° 0 mm 1 mps 709 mmHg 84%
    20:00 0°C° 0 mm 1 mps 709 mmHg 85%
    21:00 0°C° 0 mm 1 mps 709 mmHg 86%
    22:00 0°C° 0 mm 1 mps 709 mmHg 87%
    23:00 0°C° 0 mm 1 mps 709 mmHg 88%

    26 February, Tuesday

    Time Temperature Precipitation Wind Pressure Humidity
    00:00 0°C° 0 mm 1 mps 708 mmHg 89%
    01:00 0°C° 0 mm 1 mps 708 mmHg 90%
    02:00 0°C° 0 mm 1 mps 708 mmHg 90%
    03:00 0°C° 0 mm 1 mps 707 mmHg 90%
    04:00 0°C° 0 mm 1 mps 707 mmHg 90%
    05:00 0°C° 0 mm 1 mps 707 mmHg 89%
    06:00 0°C° 0 mm 1 mps 706 mmHg 87%
    07:00 -2°C° 0 mm 2 mps 706 mmHg 86%
    08:00 +1°C° 0 mm 2 mps 706 mmHg 82%
    09:00 +3°C° 0 mm 2 mps 706 mmHg 78%
    10:00 +4°C° 0 mm 2 mps 706 mmHg 73%
    11:00 +4°C° 0 mm 3 mps 705 mmHg 71%
    12:00 +5°C° 0 mm 3 mps 705 mmHg 69%
    13:00 +5°C° 0 mm 4 mps 704 mmHg 66%
    14:00 +4°C° 0.2 mm 3 mps 703 mmHg 72%
    15:00 +3°C° 0.2 mm 3 mps 703 mmHg 77%
    16:00 +2°C° 0.2 mm 3 mps 702 mmHg 83%
    17:00 +3°C° 0.4 mm 2 mps 702 mmHg 86%
    18:00 +2°C° 0.4 mm 2 mps 702 mmHg 89%
    19:00 +2°C° 0.4 mm 2 mps 702 mmHg 92%
    20:00 +2°C° 0 mm 2 mps 702 mmHg 94%
    21:00 +2°C° 0 mm 2 mps 702 mmHg 95%
    22:00 +2°C° 0 mm 2 mps 702 mmHg 96%
    23:00 0°C° 0 mm 3 mps 702 mmHg 96%
    Show more